Content
SEND FEEDBACK

Daily
Averages
Monthly
Summary
United States of America

MANGILAO, GUAM


Home > North America > United States > Guam
Elevation: 60 feet     Latitude: 13 27N     Longitude: 144 49E

WEATHER
 
SELECT A DAY
Number of Records: 356,296;   Date Range: 1/1/95 - 12/16/14
 
SHARE

PRINT THIS DATA

[ ← Previous Day ]
WEATHER ALMANAC - APRIL 30, 2013
[ Next Day → ]
[ °C ]   °F
Weather ElementAverageHighLow
Temperature80.7 °F86 °F (11:14 am)77 °F (9:38 pm)
Dewpoint75.1 °F77 °F (7:50 am)73.4 °F (12:33 am)
Humidity83.4 %94 % (9:41 pm)70 % (11:14 am)
Barometer29.85 in29.91 in (12:08 am)29.80 in (3:55 pm)
Wind Speed10.6 mph20.7 mph (9:33 pm)
Wind Gust26.5 mph (9:33 pm)
Weather ElementAverage
Visibility9.6 mi
Wind DirectionENE (82.1 °)

Weather ElementTotal
Precipitation0.19 in
Cooling Degree Days16.5 (Base 65)
Growing Degree Days31.5 (Base 50)
Averaged from 122 records on April 30, 2013
WEATHER CONDITIONS BREAKOUT
WIND DIRECTION BREAKOUT
WEATHER BY HOUR - APRIL 30, 2013
[ °C ]   °F
Local TimeTemperatureDewpointHumidityBarometerVisibilityWind DirectionWind SpeedGust SpeedPrecipitationEventsConditions
12:08 AM78.8 °F75.2 °F89 %29.91 in10.0 miEast (80°)6.9 mphMostly Cloudy
12:14 AM78.8 °F75.2 °F89 %29.91 in10.0 miCalmMostly Cloudy
12:15 AM78.8 °F75.2 °F89 %29.91 in10.0 miENE (70°)5.8 mphMostly Cloudy
12:19 AM78.8 °F75.2 °F89 %29.91 in10.0 miENE (70°)8.1 mphMostly Cloudy
12:23 AM78.8 °F75.2 °F89 %29.91 in10.0 miENE (70°)6.9 mphMostly Cloudy
12:33 AM78.8 °F73.4 °F83 %29.91 in10.0 miENE (70°)6.9 mphMostly Cloudy
12:34 AM78.8 °F73.4 °F83 %29.91 in10.0 miENE (70°)5.8 mphScattered Clouds
12:55 AM78.6 °F74.5 °F87 %29.90 in10.0 miCalmPartly Cloudy
1:13 AM78.8 °F73.4 °F83 %29.90 in10.0 miENE (70°)6.9 mphMostly Cloudy
1:18 AM78.8 °F73.4 °F83 %29.89 in10.0 miENE (60°)6.9 mphScattered Clouds
1:19 AM78.8 °F73.4 °F83 %29.89 in10.0 miENE (60°)6.9 mphMostly Cloudy
1:20 AM78.8 °F73.4 °F83 %29.89 in10.0 miENE (60°)6.9 mphScattered Clouds
1:55 AM77.9 °F74.1 °F88 %29.88 in10.0 miENE (70°)6.9 mphPartly Cloudy
2:55 AM77.7 °F74.3 °F89 %29.86 in10.0 miCalmPartly Cloudy
3:55 AM77.7 °F74.3 °F89 %29.85 in10.0 miCalmPartly Cloudy
4:49 AM78.8 °F75.2 °F89 %29.85 in9.0 miCalmLight Drizzle
4:55 AM78.4 °F75.2 °F90 %29.85 in9.0 miENE (60°)9.2 mph0.00 inLight Drizzle
4:59 AM78.8 °F75.2 °F89 %29.86 in10.0 miENE (60°)9.2 mphScattered Clouds
5:06 AM78.8 °F75.2 °F89 %29.85 in10.0 miENE (60°)8.1 mphMostly Cloudy
5:07 AM78.8 °F75.2 °F89 %29.85 in10.0 miENE (60°)8.1 mphScattered Clouds
5:09 AM78.8 °F75.2 °F89 %29.85 in10.0 miENE (60°)8.1 mphMostly Cloudy
5:12 AM78.8 °F75.2 °F89 %29.85 in10.0 miENE (60°)6.9 mphScattered Clouds
5:55 AM78.1 °F74.3 °F88 %29.86 in10.0 miENE (60°)9.2 mph0.00 inScattered Clouds
6:09 AM78.8 °F75.2 °F89 %29.86 in10.0 miENE (70°)8.1 mphMostly Cloudy
6:15 AM78.8 °F75.2 °F89 %29.86 in10.0 miENE (70°)13.8 mphScattered Clouds
6:55 AM79.3 °F75.0 °F87 %29.87 in10.0 miEast (80°)9.2 mphPartly Cloudy
7:09 AM78.8 °F75.2 °F89 %29.87 in10.0 miEast (80°)9.2 mphMostly Cloudy
7:27 AM78.8 °F75.2 °F89 %29.87 in10.0 miEast (80°)11.5 mphRainLight Rain
7:38 AM78.8 °F75.2 °F89 %29.87 in10.0 miEast (80°)8.1 mphMostly Cloudy
7:50 AM80.6 °F77.0 °F89 %29.88 in10.0 miEast (90°)15.0 mphMostly Cloudy
7:51 AM80.6 °F75.2 °F84 %29.87 in10.0 miEast (90°)13.8 mph18.4 mphMostly Cloudy
7:53 AM80.6 °F75.2 °F84 %29.87 in10.0 miEast (80°)16.1 mphScattered Clouds
7:55 AM80.4 °F75.7 °F86 %29.87 in10.0 miEast (80°)15.0 mph0.00 inScattered Clouds
8:21 AM80.6 °F75.2 °F84 %29.88 in10.0 miEast (90°)11.5 mphMostly Cloudy
8:25 AM82.4 °F75.2 °F79 %29.88 in10.0 miENE (70°)12.7 mphScattered Clouds
8:37 AM82.4 °F75.2 °F79 %29.88 in10.0 miEast (80°)15.0 mphMostly Cloudy
8:39 AM82.4 °F75.2 °F79 %29.88 in10.0 miEast (80°)13.8 mphMostly Cloudy
8:46 AM82.4 °F75.2 °F79 %29.88 in10.0 miEast (80°)12.7 mphMostly Cloudy
8:53 AM84.2 °F75.2 °F74 %29.88 in10.0 miEast (90°)15.0 mphMostly Cloudy
8:54 AM84.2 °F75.2 °F74 %29.88 in10.0 miEast (90°)15.0 mphMostly Cloudy
8:55 AM83.5 °F75.2 °F76 %29.88 in10.0 miEast (90°)16.1 mphMostly Cloudy
9:29 AM84.2 °F75.2 °F74 %29.88 in10.0 miEast (90°)16.1 mph20.7 mphMostly Cloudy
9:30 AM84.2 °F75.2 °F74 %29.88 in10.0 miEast (80°)15.0 mph20.7 mphMostly Cloudy
9:32 AM84.2 °F75.2 °F74 %29.88 in10.0 miEast (90°)15.0 mphMostly Cloudy
9:52 AM84.2 °F75.2 °F74 %29.88 in10.0 miEast (90°)16.1 mphScattered Clouds
9:55 AM84.7 °F75.4 °F73 %29.87 in10.0 miEast (90°)12.7 mphScattered Clouds
10:55 AM85.3 °F75.6 °F73 %29.86 in10.0 miEast (80°)17.3 mphScattered Clouds
11:02 AM84.2 °F75.2 °F74 %29.86 in10.0 miEast (80°)17.3 mphMostly Cloudy
11:14 AM86.0 °F75.2 °F70 %29.86 in10.0 miEast (90°)17.3 mphMostly Cloudy
11:41 AM86.0 °F75.2 °F70 %29.85 in10.0 miEast (80°)13.8 mphScattered Clouds
11:55 AM85.8 °F75.0 °F70 %29.85 in10.0 miESE (110°)15.0 mphMostly Cloudy
12:55 PM84.4 °F75.0 °F73 %29.84 in10.0 miEast (90°)13.8 mphMostly Cloudy
1:04 PM84.2 °F75.2 °F74 %29.84 in10.0 miEast (90°)13.8 mphMostly Cloudy
1:11 PM84.2 °F75.2 °F74 %29.83 in10.0 miEast (100°)12.7 mphMostly Cloudy
1:21 PM84.2 °F75.2 °F74 %29.82 in10.0 miESE (110°)12.7 mphMostly Cloudy
1:33 PM82.4 °F75.2 °F79 %29.82 in10.0 miEast (80°)12.7 mphMostly Cloudy
1:38 PM82.4 °F75.2 °F79 %29.82 in10.0 miEast (80°)11.5 mphMostly Cloudy
1:43 PM82.4 °F75.2 °F79 %29.82 in10.0 miEast (90°)12.7 mphMostly Cloudy
1:47 PM84.2 °F75.2 °F74 %29.82 in10.0 miEast (80°)13.8 mphMostly Cloudy
1:55 PM83.8 °F75.0 °F75 %29.82 in10.0 miEast (90°)12.7 mphMostly Cloudy
1:58 PM84.2 °F75.2 °F74 %29.81 in10.0 miEast (90°)13.8 mphMostly Cloudy
2:44 PM84.2 °F75.2 °F74 %29.81 in10.0 miEast (80°)11.5 mphMostly Cloudy
2:46 PM84.2 °F75.2 °F74 %29.81 in10.0 miENE (70°)12.7 mphScattered Clouds
2:49 PM84.2 °F75.2 °F74 %29.81 in10.0 miEast (90°)12.7 mphMostly Cloudy
2:50 PM84.2 °F75.2 °F74 %29.81 in10.0 miEast (100°)11.5 mphMostly Cloudy
2:52 PM84.2 °F75.2 °F74 %29.81 in10.0 miEast (90°)11.5 mphScattered Clouds
2:55 PM84.0 °F75.7 °F76 %29.81 in10.0 miEast (80°)11.5 mphScattered Clouds
3:04 PM84.2 °F75.2 °F74 %29.81 in10.0 miEast (90°)11.5 mphMostly Cloudy
3:10 PM84.2 °F75.2 °F74 %29.81 in10.0 miEast (90°)11.5 mphScattered Clouds
3:24 PM84.2 °F75.2 °F74 %29.81 in10.0 miEast (80°)11.5 mphMostly Cloudy
3:36 PM84.2 °F75.2 °F74 %29.81 in10.0 miEast (90°)11.5 mphScattered Clouds
3:44 PM84.2 °F75.2 °F74 %29.81 in10.0 miENE (70°)11.5 mphMostly Cloudy
3:55 PM82.9 °F75.0 °F77 %29.80 in10.0 miENE (70°)12.7 mphMostly Cloudy
3:58 PM82.4 °F75.2 °F79 %29.80 in10.0 miENE (70°)12.7 mphScattered Clouds
4:55 PM82.2 °F75.2 °F79 %29.80 in10.0 miEast (90°)10.4 mphScattered Clouds
4:57 PM82.4 °F75.2 °F79 %29.80 in10.0 miEast (100°)10.4 mphMostly Cloudy
5:02 PM82.4 °F75.2 °F79 %29.80 in10.0 miEast (90°)9.2 mphScattered Clouds
5:06 PM82.4 °F75.2 °F79 %29.80 in10.0 miEast (100°)6.9 mphMostly Cloudy
5:11 PM82.4 °F75.2 °F79 %29.81 in8.0 miEast (80°)13.8 mph23.0 mphRainLight Rain
5:14 PM80.6 °F75.2 °F84 %29.81 in2.5 miNE (50°)10.4 mph23.0 mphRainHeavy Rain
5:22 PM78.8 °F75.2 °F89 %29.81 in3.0 miEast (80°)11.5 mphRainLight Rain
5:24 PM78.8 °F75.2 °F89 %29.82 in7.0 miEast (80°)9.2 mphRainLight Rain
5:25 PM78.8 °F75.2 °F89 %29.81 in9.0 miEast (80°)10.4 mphScattered Clouds
5:55 PM79.3 °F75.6 °F88 %29.82 in10.0 miENE (70°)9.2 mph0.10 inPartly Cloudy
6:55 PM79.3 °F75.2 °F87 %29.83 in10.0 miEast (90°)10.4 mphScattered Clouds
7:01 PM78.8 °F75.2 °F89 %29.84 in10.0 miEast (80°)11.5 mphMostly Cloudy
7:08 PM78.8 °F75.2 °F89 %29.84 in10.0 miEast (80°)9.2 mphScattered Clouds
7:14 PM78.8 °F75.2 °F89 %29.85 in10.0 miEast (90°)10.4 mphMostly Cloudy
7:16 PM78.8 °F75.2 °F89 %29.84 in10.0 miEast (80°)11.5 mphScattered Clouds
7:55 PM79.5 °F75.0 °F86 %29.85 in10.0 miEast (100°)11.5 mphScattered Clouds
8:17 PM78.8 °F75.2 °F89 %29.85 in10.0 miEast (100°)12.7 mphMostly Cloudy
8:22 PM78.8 °F75.2 °F89 %29.86 in10.0 miEast (100°)10.4 mphScattered Clouds
8:55 PM79.5 °F74.8 °F86 %29.86 in10.0 miEast (90°)11.5 mphPartly Cloudy
9:11 PM78.8 °F75.2 °F89 %29.86 in10.0 miEast (100°)10.4 mphMostly Cloudy
9:15 PM80.6 °F75.2 °F84 %29.86 in10.0 miEast (80°)11.5 mphMostly Cloudy
9:33 PM78.8 °F75.2 °F89 %29.86 in4.0 miSE (130°)20.7 mph26.5 mphRainRain
9:38 PM77.0 °F73.4 °F89 %29.87 in3.0 miESE (120°)10.4 mph26.5 mphRainLight Rain
9:39 PM77.0 °F73.4 °F89 %29.87 in3.0 miESE (120°)10.4 mph26.5 mphRainLight Rain
9:41 PM77.0 °F75.2 °F94 %29.87 in3.0 miESE (110°)9.2 mph26.5 mphRainLight Rain
9:50 PM77.0 °F75.2 °F94 %29.87 in8.0 miEast (100°)9.2 mphRainLight Rain
9:52 PM78.8 °F75.2 °F89 %29.87 in10.0 miEast (100°)9.2 mphOvercast
9:53 PM78.8 °F75.2 °F89 %29.87 in10.0 miEast (100°)9.2 mphOvercast
9:55 PM78.1 °F75.9 °F93 %29.87 in10.0 miESE (110°)10.4 mph0.09 inMostly Cloudy
10:09 PM78.8 °F75.2 °F89 %29.87 in10.0 miESE (110°)8.1 mphScattered Clouds
10:23 PM78.8 °F75.2 °F89 %29.87 in10.0 miEast (100°)9.2 mphMostly Cloudy
10:27 PM78.8 °F75.2 °F89 %29.87 in10.0 miESE (110°)9.2 mphMostly Cloudy
10:30 PM78.8 °F75.2 °F89 %29.87 in10.0 miEast (100°)10.4 mphMostly Cloudy
10:32 PM78.8 °F75.2 °F89 %29.86 in10.0 miESE (110°)9.2 mphScattered Clouds
10:38 PM78.8 °F75.2 °F89 %29.86 in10.0 miESE (110°)9.2 mphMostly Cloudy
10:40 PM78.8 °F75.2 °F89 %29.86 in10.0 miEast (100°)9.2 mphMostly Cloudy
10:55 PM78.4 °F75.7 °F91 %29.86 in10.0 miESE (110°)10.4 mphMostly Cloudy
10:58 PM78.8 °F75.2 °F89 %29.86 in10.0 miEast (100°)9.2 mphScattered Clouds
11:00 PM78.8 °F75.2 °F89 %29.86 in10.0 miEast (100°)9.2 mphMostly Cloudy
11:06 PM78.8 °F75.2 °F89 %29.86 in10.0 miEast (90°)6.9 mphMostly Cloudy
11:22 PM78.8 °F75.2 °F89 %29.86 in10.0 miEast (90°)9.2 mphMostly Cloudy
11:26 PM78.8 °F75.2 °F89 %29.86 in10.0 miEast (90°)11.5 mphScattered Clouds
11:27 PM78.8 °F75.2 °F89 %29.86 in10.0 miEast (80°)11.5 mphMostly Cloudy
11:28 PM78.8 °F75.2 °F89 %29.86 in10.0 miEast (80°)10.4 mphScattered Clouds
11:29 PM78.8 °F75.2 °F89 %29.86 in10.0 miEast (80°)9.2 mphMostly Cloudy
11:33 PM78.8 °F75.2 °F89 %29.86 in10.0 miEast (90°)6.9 mphMostly Cloudy
11:41 PM78.8 °F75.2 °F89 %29.86 in10.0 miEast (90°)11.5 mphScattered Clouds
11:55 PM78.6 °F75.2 °F89 %29.85 in10.0 miEast (90°)11.5 mphScattered Clouds
Hourly data recorded from PGUA, located miles away from Mangilao, Guam







STORIES FROM OUR PARTNERS